Weather History for Norwood, MA

Change the Weather History Date:

Thursday, December 1, 2011

  Actual Average Record
Temperature  
Mean Temperature 40 °F -  
Max Temperature 48 °F 44 °F 72 °F (2001)
Min Temperature 30 °F 25 °F 17 °F (2007)
Degree Days  
Heating Degree Days 25    
Moisture  
Dew Point 26 °F    
Average Humidity 60    
Maximum Humidity 82    
Minimum Humidity 37    
Precipitation  
Precipitation 0.00 in - - ()
Sea Level Pressure  
Sea Level Pressure 30.10 in    
Wind  
Wind Speed 5 mph (NNW)    
Max Wind Speed 14 mph    
Max Gust Speed 20 mph    
Visibility 10 miles    
Events      
Averages and records for this station are not official NWS values.
T = Trace of Precipitation, MM = Missing Value Source: NWS Daily Summary

Daily Weather History Graph

Daily Weather History Graph

Search for Another Location

Airport:

Trip Planner

Search our weather history database for the weather conditions in past years. The results will help you decide how hot, cold, wet, or windy it might be!

Date:

Astronomy

Dec. 01, 2011 Rise Set
Actual Time 6:53 AM EST 4:13 PM EST
Civil Twilight 6:22 AM EST 4:44 PM EST
Nautical Twilight 5:47 AM EST 5:19 PM EST
Astronomical Twilight 5:13 AM EST 5:53 PM EST
Moon 11:32 AM EST (12/1) 11:14 PM EST (12/1)
Length of Visible Light 10h 22m
Length of Day
9h 20m
Waxing Crescent, 43% of the Moon is Illuminated
Dec 1
Waxing Crescent
Dec 2
First Quarter
Dec 10
Full
Dec 17
Last Quarter
Dec 24
New

Hourly Weather History & Observations

Time (EST) Temp. Windchill Dew Point Humidity Pressure Visibility Wind Dir Wind Speed Gust Speed Precip Events Conditions
12:53 AM 43.0 °F 40.3 °F 32.0 °F 65% 29.86 in 10.0 mi WSW 4.6 mph - N/A   Overcast
2:53 AM 42.1 °F 36.6 °F 28.9 °F 60% 29.90 in 10.0 mi WNW 9.2 mph - N/A   Clear
3:53 AM 41.0 °F 35.8 °F 28.0 °F 60% 29.93 in 10.0 mi WNW 8.1 mph - N/A   Clear
4:53 AM 37.9 °F - 28.0 °F 68% 29.96 in 10.0 mi Calm Calm - N/A   Clear
5:53 AM 37.0 °F - 28.0 °F 70% 29.98 in 10.0 mi Calm Calm - N/A   Clear
6:53 AM 39.0 °F 34.0 °F 27.0 °F 62% 30.02 in 10.0 mi NNW 6.9 mph - N/A   Clear
7:53 AM 39.9 °F 35.8 °F 27.0 °F 60% 30.06 in 10.0 mi NNW 5.8 mph - N/A   Clear
8:53 AM 42.1 °F 37.7 °F 27.0 °F 55% 30.09 in 10.0 mi North 6.9 mph - N/A   Clear
9:53 AM 44.1 °F 37.4 °F 27.0 °F 51% 30.11 in 10.0 mi North 13.8 mph 19.6 mph N/A   Clear
11:53 AM 48.0 °F - 28.0 °F 46% 30.09 in 10.0 mi NNW 5.8 mph - N/A   Clear
12:53 PM 48.9 °F - 27.0 °F 43% 30.09 in 10.0 mi Variable 4.6 mph - N/A   Clear
1:53 PM 48.9 °F - 26.1 °F 41% 30.10 in 10.0 mi North 6.9 mph - N/A   Clear
4:53 PM 45.0 °F - 19.9 °F 37% 30.18 in 10.0 mi Calm Calm - N/A   Clear
5:53 PM 37.0 °F - 27.0 °F 67% 30.19 in 10.0 mi Calm Calm - N/A   Clear
6:53 PM 39.0 °F 35.7 °F 19.9 °F 46% 30.21 in 10.0 mi North 4.6 mph - N/A   Clear
7:53 PM 35.1 °F - 24.1 °F 64% 30.23 in 10.0 mi Calm Calm - N/A   Clear
8:53 PM 33.1 °F - 25.0 °F 72% 30.25 in 10.0 mi Calm Calm - N/A   Clear
9:53 PM 32.0 °F - 24.1 °F 73% 30.27 in 10.0 mi Calm Calm - N/A   Clear
10:53 PM 32.0 °F - 26.1 °F 79% 30.28 in 10.0 mi Calm Calm - N/A   Clear
11:53 PM 30.0 °F - 25.0 °F 82% 30.29 in 10.0 mi Calm Calm - N/A   Clear